Location: Berlin
(42.3812°N, 71.6370°W)
Time: 22:53:51
(UTC+00:00)

Cosmos 1331 Rocket - Visible Passes

Search period start: 15 February 2026 00:00
Search period end: 25 February 2026 00:00
Orbit: 745 x 773 km, 74.0° (Epoch: 15 February)

Date Brightness Start Highest point End Pass type
(mag) Time Alt. Az. Time Alt. Az. Time Alt. Az.
19 Feb 6.5 01:00:30 10° N 01:00:40 11° N 01:00:40 11° N visible
20 Feb 6.3 00:21:50 10° NNE 00:21:53 10° NNE 00:21:53 10° NNE visible
20 Feb 6.8 02:01:43 10° NNW 02:01:59 11° NNW 02:01:59 11° NNW visible
21 Feb 6.2 01:22:02 10° N 01:23:14 17° N 01:23:14 17° N visible
22 Feb 5.8 00:42:35 10° N 00:44:33 19° NNE 00:44:33 19° NNE visible
22 Feb 6.9 02:24:15 10° NW 02:24:38 12° NW 02:24:38 12° NW visible
23 Feb 5.7 00:03:30 10° NNE 00:05:54 17° NE 00:05:54 17° NE visible
23 Feb 6.1 01:44:11 10° NNW 01:46:01 22° NNW 01:46:01 22° NNW visible
23 Feb 6.0 23:25:40 10° NE 23:26:45 11° NE 23:27:20 10° NE visible
24 Feb 5.1 01:04:22 10° NNW 01:07:27 35° N 01:07:27 35° N visible
